DG2IAC > SAT 13.12.02 15:07l 126 Lines 4908 Bytes #999 (10) @ EU
BID : ACCDB0ZKA00C
Read: DB0FHN GUEST
Subj: Meteosat Orbit 2002 Day 343
Path: DB0FHN<DB0ZWI<DB0CHZ<DB0ERF<DB0BRI<DB0SIF<DB0MW<DB0SWR<DB0RBS<DB0CRL<
DB0ZKA
Sent: 021210/1818z @:DB0ZKA.#BAY.DEU.EU [Augsburg JN58ki] bcm1.44k LT:010
From: DG2IAC @ DB0ZKA.#BAY.DEU.EU (Kai-Erik)
To: SAT @ EU
X-Info: Received from 80.134.206.118 by HTTP-frontend
EUMETSAT
CURRENT ORBIT DETAILS FOR METEOSAT-7 (MTP1)
----------------------------------------------
Epoch : 02.343.00.00.00.000 UTC
Orbital Elements:
Semi-Major Axis : 42167.16915 km
Eccentricity : 0.00010526
Inclination : 0.11907 deg
RA of Ascending Node : 9.10149 deg
Argument of Perigee : 216.56290 deg
True Anomaly : 212.03908 deg
Longitude : 0.13600 deg
Mean Anomaly : 212.04548 deg
Mean Longitude : 0.14117 deg
Mean Drift Rate : -0.01811 deg/day
Position and Velocity:
X : 8981.21127 km
Y : 41203.38148 km
Z : 81.59938 km
Xdot : -3.00378 km/s
Ydot : 0.65456 km/s
Zdot : 0.00233 km/s
Tracking Period Start : 02.336.06.16.00.500 UTC
End : 02.343.03.16.42.500 UTC
Spacecraft Attitude:
Right Ascension : 104.665 deg
Declination : 89.690 deg
Spacecraft Status:
Spin Rate : 99.788 rpm
Fuel Mass : 16.086 kg
Coordinate Frame : Mean of Date
CURRENT ORBIT DETAILS FOR METEOSAT-6 (MOP3)
----------------------------------------------
Epoch : 02.343.00.00.00.000 UTC
Orbital Elements:
Semi-Major Axis : 42164.05460 km
Eccentricity : 0.00005447
Inclination : 2.50486 deg
RA of Ascending Node : 82.34781 deg
Argument of Perigee : 210.94249 deg
True Anomaly : 153.75809 deg
Longitude : 9.47649 deg
Mean Anomaly : 153.75533 deg
Mean Longitude : 9.47608 deg
Mean Drift Rate : 0.02461 deg/day
Position and Velocity:
X : 2174.51549 km
Y : 42109.73644 km
Z : 151.01725 km
Xdot : -3.06753 km/s
Ydot : 0.15800 km/s
Zdot : 0.13392 km/s
Tracking Period Start : 02.312.12.17.10.125 UTC
End : 02.317.10.22.49.125 UTC
Spacecraft Attitude:
Right Ascension : 1.052 deg
Declination : 87.657 deg
Spacecraft Status:
Spin Rate : 99.844 rpm
Fuel Mass : 7.219 kg
Coordinate Frame : Mean of Date
CURRENT ORBIT DETAILS FOR METEOSAT-5 (MOP2)
----------------------------------------------
Epoch : 02.343.00.00.00.000 UTC
Orbital Elements:
Semi-Major Axis : 42166.07158 km
Eccentricity : 0.00012823
Inclination : 5.47466 deg
RA of Ascending Node : 70.21755 deg
Argument of Perigee : 124.49772 deg
True Anomaly : 305.63615 deg
Longitude : 62.70009 deg
Mean Anomaly : 305.64809 deg
Mean Longitude : 62.79643 deg
Mean Drift Rate : 0.00468 deg/day
Position and Velocity:
X : -32294.08519 km
Y : 26841.97161 km
Z : 3783.18851 km
Xdot : -1.95724 km/s
Ydot : -2.36934 km/s
Zdot : 0.09966 km/s
Tracking Period Start : 02.336.04.06.41.500 UTC
End : 02.343.01.06.03.500 UTC
Spacecraft Attitude:
Right Ascension : 342.765 deg
Declination : 84.587 deg
Spacecraft Status:
Spin Rate : 99.691 rpm
Fuel Mass : 5.114 kg
Coordinate Frame : Mean of Date
Comments:
MSG1 is located at its commissioning longitude of 10.5 deg West (+/- 0.4 deg).
Read previous mail | Read next mail
|